SCP
0 0 0 0 0 0 0 0 0 1 1 2 2 2 3 3 2 2 3 4 4 3 3 3 2 4 7 8 7 6 7 7 6 6 6 5 5 5 5 5 5 5 6 7
0 0 0 0 0 0 0 0 0 1 2 2 2 2 4 4 3 2 2 3 3 3 3 3 2 3 4 6 5 5 6 6 6 6 5 5 5 5 4 5 5 6 6 6
0 0 0 0 0 0 0 0 0 1 1 1 2 2 4 4 3 2 2 3 2 2 2 2 2 2 3 4 4 4 5 6 6 6 5 5 5 5 5 5 6 6 6 6
0 0 0 0 0 0 0 0 0 0 1 1 1 2 3 4 3 2 2 2 2 2 2 2 2 3 3 3 3 4 5 6 6 6 5 5 5 5 5 6 7 7 7 7
0 0 0 0 0 0 0 0 0 0 0 0 1 1 2 3 3 3 3 2 2 2 3 3 3 3 3 2 2 3 4 5 5 5 5 5 6 6 7 7 7 8 8 8
0 0 0 0 0 0 0 0 0 0 0 0 1 1 2 3 3 3 3 3 2 3 4 4 4 3 2 2 2 2 3 4 5 4 5 5 6 7 8 8 8 8 8 8
0 0 0 0 0 0 0 0 0 0 0 1 1 1 2 3 4 4 3 3 3 3 4 4 3 2 1 1 1 2 3 5 5 5 5 6 6 7 7 8 8 7 7 7
0 0 0 0 0 0 0 0 0 0 0 1 1 2 2 3 3 3 3 3 3 3 3 2 2 1 1 1 1 2 3 5 6 6 6 6 6 6 6 6 6 6 5 4
0 0 0 0 0 0 0 0 0 0 0 0 1 2 2 2 2 2 2 2 2 2 2 2 1 1 1 1 1 2 2 4 6 7 6 5 5 5 5 5 5 4 4 3
0 0 0 0 0 0 0 0 0 0 0 0 1 1 2 1 1 1 1 1 1 1 1 1 1 1 1 1 1 1 2 2 4 5 5 4 5 5 4 4 3 4 3 3
0 0 0 0 0 0 0 0 0 0 0 0 0 1 2 1 1 0 0 1 1 1 1 1 1 1 1 1 1 1 1 2 3 3 3 4 4 4 3 3 3 3 3 2
0 0 0 0 0 0 0 0 0 0 0 0 0 1 2 1 1 1 0 0 1 1 1 1 1 1 1 1 1 1 2 2 2 3 2 3 3 3 3 2 2 2 2 2
0 0 0 0 0 0 0 0 0 0 0 0 0 1 1 1 1 1 1 1 1 0 0 0 0 1 1 1 1 2 3 3 3 2 2 2 3 3 3 2 2 1 2 2
0 0 0 0 0 0 0 0 0 0 0 0 0 0 0 0 0 0 1 1 1 0 0 0 0 1 1 1 1 2 3 3 2 2 2 2 3 3 2 1 1 1 1 1
0 0 0 0 0 0 0 0 0 0 0 0 0 0 0 0 0 0 1 1 0 0 0 0 0 1 1 1 1 1 2 2 2 2 2 2 2 2 1 1 1 1 1 1
0 0 0 0 0 0 0 0 1 1 1 0 0 0 0 1 1 1 1 0 0 0 0 0 0 0 1 1 1 1 1 2 2 3 3 2 1 1 1 1 1 1 1 1
1 1 0 0 0 0 0 0 0 0 1 1 1 1 0 0 0 0 0 0 0 0 0 0 0 1 1 1 1 1 1 2 2 3 3 2 1 0 1 1 1 1 1 1
1 1 1 0 0 0 0 0 0 0 1 1 1 1 0 0 0 0 0 0 1 0 0 0 0 1 1 1 1 1 1 1 1 2 2 1 0 0 0 1 1 1 1 1
1 1 1 0 0 0 0 0 0 0 1 1 1 1 1 0 0 0 0 1 1 1 0 0 0 1 1 1 1 1 1 1 1 1 1 1 0 0 1 1 1 1 1 1
1 1 0 0 0 0 0 0 0 0 1 1 1 1 1 1 1 0 0 1 1 1 1 0 0 1 1 1 1 1 1 1 1 1 1 1 1 1 1 1 1 2 2 2
0 0 0 0 0 0 0 0 0 1 1 1 1 1 1 1 1 1 1 1 1 1 1 0 0 1 1 1 1 1 1 1 1 1 1 1 1 1 1 2 2 2 2 2
0 0 0 1 1 1 1 1 1 1 2 2 1 1 1 1 1 1 1 1 1 1 1 1 1 1 2 2 1 1 1 2 1 1 1 1 1 1 2 2 2 3 3 3
0 1 1 1 1 1 1 1 1 1 1 1 1 1 1 1 1 1 1 1 1 1 1 1 1 1 2 2 2 2 2 2 2 1 1 2 2 2 2 2 2 2 2 2
0 1 1 0 1 1 1 0 0 0 0 0 0 0 0 0 0 0 1 1 1 1 1 1 1 1 2 2 3 3 3 3 2 2 2 2 2 2 3 2 2 2 2 2
1 1 0 0 0 0 0 0 0 0 0 0 0 0 0 0 0 0 1 1 1 1 1 1 2 2 2 2 3 4 4 3 3 3 3 2 2 2 2 2 2 1 1 1
1 1 1 0 0 0 0 0 0 0 0 0 0 0 0 0 0 0 1 1 2 2 1 2 2 2 2 2 3 3 3 3 3 3 3 2 2 2 2 2 2 1 1 1
Wind_Speed
10 8 5 6 6 7 9 10 9 4 0 3 3 3 6 6 5 4 5 5 5 5 5 5 4 4 4 3 2 2 2 2 1 1 2 2 2 2 1 1 0 1 1 2
6 4 5 8 7 6 9 10 9 7 4 5 4 3 4 5 4 4 5 5 4 4 4 3 3 3 3 3 2 2 2 2 2 1 2 2 2 2 2 1 1 1 1 2
5 4 5 8 9 7 7 8 8 8 7 8 6 4 4 5 4 4 3 4 4 2 3 2 3 3 3 3 2 3 2 1 2 2 2 2 2 2 2 2 1 1 2 2
5 3 5 8 8 9 9 8 10 11 10 8 6 4 5 6 5 3 2 2 2 3 3 3 4 4 3 3 3 3 2 1 1 2 2 3 3 3 3 2 1 1 2 2
6 4 5 6 7 8 9 10 11 14 12 11 7 3 4 6 3 2 2 2 2 2 2 3 4 4 4 4 4 3 2 1 1 1 2 3 3 3 3 3 2 2 2 2
6 4 4 5 7 7 9 11 13 11 7 7 5 2 2 3 1 3 3 3 4 4 3 4 5 5 4 4 4 3 2 2 2 2 2 3 3 4 4 3 3 2 1 1
6 2 1 3 7 6 8 9 7 6 3 3 4 1 5 5 5 6 5 4 4 4 5 5 5 4 4 4 4 4 3 3 2 2 2 3 3 4 3 3 3 3 1 1
8 4 4 5 6 7 7 7 5 7 6 6 4 3 6 7 7 6 6 6 6 5 5 4 4 4 4 4 4 4 3 3 3 2 2 3 3 3 2 3 3 2 2 2
9 7 7 5 5 5 7 6 6 6 9 7 2 5 6 7 6 6 6 6 6 5 5 4 3 3 3 3 3 3 3 3 3 3 2 2 2 2 3 3 3 2 2 2
9 10 8 6 6 4 5 7 5 5 5 5 3 3 3 4 4 6 6 6 5 5 5 5 4 3 2 2 2 2 2 3 3 3 3 3 3 2 2 3 3 3 3 2
8 8 9 7 4 6 5 5 5 6 6 5 5 3 3 3 4 5 6 6 6 6 5 4 4 3 2 2 3 2 3 3 3 3 3 3 3 3 2 2 3 3 3 3
7 6 8 8 4 4 3 4 4 4 5 6 4 2 4 5 5 5 6 6 6 6 6 5 5 4 3 4 4 3 3 3 3 3 3 3 3 3 3 2 2 3 3 3
7 5 7 4 0 3 4 4 4 5 4 4 5 1 3 3 5 5 5 6 5 5 6 6 6 5 4 5 5 5 4 5 4 4 3 3 3 3 3 2 2 3 2 3
4 5 6 7 7 8 7 6 5 4 4 4 4 3 3 5 6 6 5 5 5 5 5 6 6 5 5 5 5 5 5 5 4 4 3 2 2 3 2 2 2 3 3 3
3 6 7 8 8 7 7 7 6 4 5 4 5 4 5 6 6 6 6 6 7 7 7 7 7 6 5 5 5 5 6 5 5 4 3 3 2 2 2 2 2 2 3 3
2 6 9 10 7 6 6 5 5 5 4 4 5 5 6 6 6 6 6 6 6 6 7 7 6 6 6 6 6 5 5 5 5 4 4 3 3 2 2 2 2 3 3 4
4 6 9 9 7 7 5 4 3 3 4 4 4 5 5 6 6 5 5 6 6 6 6 6 6 5 5 5 5 6 5 4 4 4 4 3 3 3 2 3 3 3 3 3
6 6 6 8 7 6 1 4 4 3 4 5 5 4 4 5 5 4 4 5 5 6 6 6 6 5 5 4 4 5 5 4 4 4 4 4 4 4 3 3 3 3 2 2
3 5 6 6 6 3 2 3 4 3 4 6 6 6 6 5 4 2 5 5 5 5 5 5 4 5 4 5 5 4 5 4 4 4 4 4 4 4 3 3 3 3 2 2
3 4 6 7 8 5 2 4 4 1 1 6 7 6 7 6 5 4 6 5 4 4 3 4 5 4 4 4 4 4 5 4 4 5 4 4 3 3 3 3 2 2 2 2
4 5 7 8 7 2 4 5 4 2 3 7 7 7 8 7 5 4 4 4 3 3 3 4 4 4 3 3 3 4 4 4 4 4 4 4 3 3 2 2 2 2 2 2
5 5 6 6 6 2 6 5 4 4 4 5 6 6 6 5 4 4 4 4 3 3 3 3 4 4 3 3 3 3 3 3 3 3 3 3 3 3 3 2 2 2 2 2
3 4 4 4 3 3 4 4 3 2 3 4 5 6 5 6 5 5 4 4 3 3 3 2 3 3 3 2 2 3 3 3 3 3 3 3 3 3 2 1 2 2 2 2
3 2 4 4 3 2 3 3 3 3 4 5 5 5 6 6 6 5 4 4 4 3 2 2 3 3 3 3 2 2 2 2 3 3 3 2 2 2 1 1 1 1 2 2
7 5 5 6 3 4 3 5 5 4 5 5 6 5 5 6 6 4 3 3 3 3 2 2 3 3 4 3 2 2 2 2 2 3 3 3 3 2 1 1 1 1 1 1
6 5 5 4 3 3 4 5 7 6 5 5 6 6 6 5 5 5 4 3 3 3 2 2 3 4 4 3 3 2 2 2 2 3 3 3 3 2 1 1 0 2 0 1
Wind_Direction
241 246 282 299 291 303 306 300 302 300 104 251 220 181 166 156 150 139 129 117 105 99 99 89 68 53 61 71 74 67 60 63 4 359 321 311 303 303 296 264 218 291 286 287
258 272 313 314 316 306 300 307 316 323 333 290 255 192 168 138 139 116 112 103 86 83 74 67 65 57 53 56 59 71 57 39 2 342 297 285 297 286 273 287 252 249 257 271
310 349 339 310 308 307 307 304 307 309 301 274 256 232 160 146 115 102 88 89 90 69 49 19 4 38 37 39 44 38 48 35 3 332 321 327 304 288 292 291 255 257 257 255
298 317 305 302 316 323 308 317 312 297 286 274 262 262 159 140 130 119 96 67 65 40 18 1 351 13 30 29 33 45 37 29 353 325 331 314 306 306 310 310 301 293 267 259
296 300 299 315 331 319 312 313 296 284 276 274 263 266 122 142 142 111 76 49 31 35 8 357 3 21 27 25 25 32 31 25 347 310 305 298 311 308 311 315 313 285 272 251
302 307 328 346 324 315 316 310 297 281 268 267 297 301 98 118 98 77 57 25 11 358 19 29 18 28 27 17 11 15 15 11 351 318 311 305 311 305 303 304 303 296 283 273
308 288 28 347 321 323 327 323 317 315 296 284 310 29 83 71 66 69 60 36 19 13 32 33 22 19 9 3 2 3 6 349 334 318 318 313 309 298 293 294 301 299 297 301
320 325 9 357 344 325 328 329 322 313 312 309 312 76 91 75 66 55 53 35 20 17 26 24 18 13 8 2 0 354 359 341 330 323 313 302 311 305 309 313 306 301 303 308
332 331 332 340 325 316 324 323 323 298 292 301 19 93 92 52 50 50 42 27 18 12 13 10 14 18 3 351 1 348 346 342 337 336 321 305 319 314 322 315 302 303 304 295
324 312 303 314 301 308 330 338 335 319 311 312 324 36 49 17 20 27 24 23 14 9 11 5 358 4 358 354 13 356 348 338 336 342 324 332 321 305 309 309 316 312 314 324
323 307 304 306 323 342 350 349 338 322 321 319 324 21 54 29 37 23 18 24 14 5 -0 1 352 352 12 357 360 349 335 327 337 339 342 330 322 323 316 317 323 323 317 309
342 315 306 304 333 14 17 347 339 324 324 318 320 56 63 52 46 28 23 27 18 4 355 1 5 9 15 4 353 347 342 337 342 348 347 346 345 336 323 326 318 309 310 310
343 322 305 301 351 17 359 348 328 316 303 320 323 30 67 46 45 37 23 16 16 6 358 0 9 9 15 4 357 358 357 352 352 355 355 0 343 334 333 328 318 315 313 315
298 296 299 310 321 334 335 330 336 330 322 332 340 354 7 28 32 29 19 11 10 8 1 2 7 12 16 6 3 356 353 354 351 351 359 350 342 339 332 330 330 324 326 329
306 295 299 299 302 313 318 325 334 338 328 326 347 360 20 38 24 22 16 13 5 0 4 8 5 10 10 5 2 357 353 354 349 340 345 341 341 337 338 341 333 337 346 348
312 298 301 293 289 297 306 316 321 339 349 355 357 15 41 43 30 18 13 6 360 0 359 359 4 7 5 2 354 352 352 350 348 344 347 352 350 345 357 355 2 4 0 353
290 287 291 288 296 298 302 323 339 356 5 4 354 14 21 20 16 8 7 359 359 356 353 354 7 10 360 352 347 342 342 342 343 346 347 356 354 352 10 6 15 8 355 351
276 293 288 285 289 282 15 47 29 6 27 29 22 7 14 16 9 12 25 12 -0 357 354 356 358 357 355 349 345 337 335 342 345 348 354 2 8 8 12 15 11 4 350 340
238 271 284 289 289 285 319 8 7 14 21 20 11 358 359 5 342 29 47 16 4 3 358 351 354 350 349 352 349 337 336 349 352 353 2 10 9 6 3 12 4 358 345 337
227 239 259 276 288 298 356 23 15 21 75 21 12 359 350 347 332 2 16 0 359 1 356 350 349 349 352 354 344 336 340 350 356 357 1 3 1 354 356 2 357 350 345 352
241 246 255 271 278 295 35 33 6 339 20 7 4 354 350 352 349 345 349 354 359 349 344 348 346 347 351 344 338 335 343 349 349 355 1 358 352 338 351 5 354 340 340 338
279 281 277 280 278 306 38 25 22 30 11 351 346 346 346 347 346 341 345 347 339 337 343 342 338 337 341 343 339 333 341 338 337 349 350 346 340 332 4 13 339 330 330 330
283 306 314 318 336 40 26 47 47 20 346 333 330 334 336 330 329 337 340 333 330 337 339 325 315 322 333 333 331 323 325 326 331 336 331 322 324 323 334 343 328 332 334 334
287 314 299 290 290 322 343 360 360 353 344 335 338 337 333 328 328 332 331 322 320 318 304 302 309 315 319 320 317 308 311 318 322 321 315 304 296 289 313 323 326 334 340 351
304 295 283 277 291 302 330 339 331 342 334 326 324 323 323 320 318 317 311 300 300 300 298 303 304 304 308 311 304 302 303 307 305 306 301 296 292 278 271 312 341 336 12 27
278 278 271 283 309 302 308 314 320 319 314 311 313 318 318 315 313 308 307 299 290 285 277 274 287 298 306 307 299 285 273 280 285 295 300 296 285 270 238 210 250 12 218 164